Change the Weather History Date:

Tuesday, July 30, 2013

  Actual Average Record
Temperature  
Mean Temperature 46 °F -  
Max Temperature 53 °F 50 °F 60 °F (1998)
Min Temperature 39 °F 33 °F 24 °F (2000)
Degree Days  
Heating Degree Days 19    
Moisture  
Dew Point 43 °F    
Average Humidity 90    
Maximum Humidity 100    
Minimum Humidity 77    
Precipitation  
Precipitation 0.00 in - - ()
Sea Level Pressure  
Sea Level Pressure 30.33 in    
Wind  
Wind Speed 7 mph ()    
Max Wind Speed 12 mph    
Max Gust Speed -    
Visibility 4.8 miles    
Events Fog    
Averages and records for this station are not official NWS values.
T = Trace of Precipitation, MM = Missing Value Source: Averaged Metar Reports

Daily Weather History Graph

Daily Weather History Graph

Search for Another Location

Airport or City:

Trip Planner

Search our weather history database for the weather conditions in past years. The results will help you decide how hot, cold, wet, or windy it might be!

Date:

Astronomy

Jul. 30, 2013 Rise Set
Actual Time 7:45 AM NZST 5:27 PM NZST
Civil Twilight 7:14 AM NZST 5:58 PM NZST
Nautical Twilight 6:40 AM NZST 6:32 PM NZST
Astronomical Twilight 6:06 AM NZST 7:06 PM NZST
Moon 1:01 AM NZST (7/30) 11:27 AM NZST (7/30)
Length of Visible Light 10h 43m
Length of Day
9h 42m
Waning Gibbous, 48% of the Moon is Illuminated
Jul 30
Waning Gibbous
Aug 7
New
Aug 14
First Quarter
Aug 21
Full
Aug 28
Last Quarter

Hourly Weather History & Observations

Time (NZST) Temp. Windchill Dew Point Humidity Pressure Visibility Wind Dir Wind Speed Gust Speed Precip Events Conditions
12:00 AM 46.4 °F 41.5 °F 42.8 °F 87% 30.39 in - East 10.4 mph - N/A   Clear
1:00 AM 46.4 °F 41.5 °F 44.6 °F 93% 30.39 in - East 10.4 mph - N/A   Clear
2:00 AM 46.4 °F 41.9 °F 44.6 °F 93% 30.36 in - ENE 9.2 mph - N/A   Clear
3:00 AM 46.4 °F 41.5 °F 44.6 °F 93% 30.36 in - East 10.4 mph - N/A   Clear
4:00 AM 46.4 °F 41.9 °F 44.6 °F 93% 30.36 in - East 9.2 mph - N/A   Clear
5:00 AM 46.4 °F 41.9 °F 44.6 °F 93% 30.36 in 6.2 mi East 9.2 mph - N/A   Scattered Clouds
6:00 AM 46.4 °F 41.9 °F 44.6 °F 93% 30.36 in 6.2 mi ENE 9.2 mph - N/A   Scattered Clouds
7:00 AM 41.0 °F 36.4 °F 41.0 °F 100% 30.36 in 6.2 mi NE 6.9 mph - N/A   Scattered Clouds
8:00 AM 41.0 °F 37.1 °F 39.2 °F 93% 30.36 in 6.2 mi NNE 5.8 mph - N/A   Mostly Cloudy
9:00 AM 39.2 °F 35.9 °F 37.4 °F 93% 30.36 in 6.2 mi NNE 4.6 mph - N/A   Mostly Cloudy
10:00 AM 48.2 °F - 46.4 °F 93% 30.36 in 6.2 mi NE 6.9 mph - N/A   Mostly Cloudy
11:00 AM 51.8 °F - 48.2 °F 88% 30.36 in 6.2 mi ENE 9.2 mph - N/A   Mostly Cloudy
12:00 PM 53.6 °F - 48.2 °F 82% 30.33 in 6.2 mi East 11.5 mph - N/A   Scattered Clouds
1:00 PM 51.8 °F - 46.4 °F 82% 30.33 in 6.2 mi East 11.5 mph - N/A   Scattered Clouds
2:00 PM 51.8 °F - 46.4 °F 82% 30.30 in 6.2 mi East 11.5 mph - N/A   Partly Cloudy
3:00 PM 53.6 °F - 46.4 °F 77% 30.30 in 6.2 mi East 6.9 mph - N/A   Partly Cloudy
4:00 PM 51.8 °F - 46.4 °F 82% 30.30 in 6.2 mi East 8.1 mph - N/A   Partly Cloudy
5:00 PM 48.2 °F - 44.6 °F 87% 30.30 in 6.2 mi ENE 6.9 mph - N/A   Partly Cloudy
6:00 PM 44.6 °F 42.2 °F 42.8 °F 93% 30.30 in - NE 4.6 mph - N/A   Clear
7:00 PM 44.6 °F 43.1 °F 42.8 °F 93% 30.30 in 6.2 mi ENE 3.5 mph - N/A Fog Unknown
7:45 PM 42.8 °F 41.1 °F 41.0 °F 93% 30.30 in 1.6 mi NNE 3.5 mph - N/A Fog Fog
8:00 PM 42.8 °F 41.1 °F 41.0 °F 93% 30.30 in 1.2 mi NNE 3.5 mph - N/A Fog Fog
9:00 PM 39.2 °F 37.0 °F 37.4 °F 93% 30.30 in 1.2 mi North 3.5 mph - N/A Fog Fog
10:00 PM 39.2 °F 35.9 °F 37.4 °F 93% 30.30 in 0.7 mi NNW 4.6 mph - N/A Fog Fog
11:00 PM 41.0 °F 38.0 °F 39.2 °F 93% 30.30 in 0.5 mi North 4.6 mph - N/A Fog Fog